Location: Sebastopol
(38.4021°N, 122.8239°W)
Time: 15:30:40
(UTC+00:00)

Meteor 1-31 Rocket - Pass Details

Date: 29 October 2020
Orbit: 521 x 546 km, 97.6° (Epoch: 01 December)

Event Time Altitude Azimuth Distance (km) Brightness Sun altitude
Rises 13:40:56 0° 359° (N) 2,722 6.3 -11.2°
Reaches altitude 10° 13:43:17 10° 347° (NNW) 1,823 5.3 -10.7°
Maximum altitude 13:46:38 27° 289° (WNW) 1,069 3.7 -10.1°
Drops below altitude 10° 13:49:57 10° 231° (SW) 1,806 5.1 -9.4°
Sets 13:52:16 0° 219° (SW) 2,690 6.1 -9.0°
